Location: Czu?�w
(50.1404°N, 18.9919°E)
Time: 03:19:06
(UTC+00:00)

ATLAS 2AS CENTAUR R/B - Pass Details

Date: 27 October 2020
Orbit: 939 x 1273 km, 63.7° (Epoch: 23 November)

Event Time Altitude Azimuth Distance (km) Brightness Sun altitude
Rises 16:01:13 0° 302° (WNW) 4,221 6.6 -5.8°
Reaches altitude 10° 16:04:29 10° 312° (NW) 3,227 5.7 -6.3°
Maximum altitude 16:11:20 32° 13° (NNE) 1,935 3.9 -7.4°
Drops below altitude 10° 16:17:48 10° 75° (ENE) 3,038 4.4 -8.4°
Enters shadow 16:17:50 10° 76° (ENE) 3,052 4.4 -8.4°
